Location: Wavehorne
(51.0500°N, 0.8333°E)
Time: 15:18:03
(UTC+00:00)

SeaSat 1 - Pass Details

Date: 20 June 2021
Orbit: 745 x 746 km, 108.0° (Epoch: 01 August)

Event Time Altitude Azimuth Distance (km) Brightness Sun altitude
Rises 02:28:19 0° 36° (NE) 3,200 8.3 -8.5°
Reaches altitude 10° 02:30:48 10° 46° (NE) 2,272 6.5 -8.3°
Maximum altitude 02:35:15 33° 110° (ESE) 1,244 3.8 -7.9°
Drops below altitude 10° 02:39:40 10° 175° (S) 2,258 4.5 -7.5°
Enters shadow 02:41:20 - 182° (S) 2,873 5.0 -7.3°
